[[{"header":{"parameterUnit":"m.s-1","parameterCategory":1,"la1":30.2991,"la2":30.254,"lo1":-89.0895,"lo2":-89.0444,"dy":0.0017,"dx":0.0017,"nx":28,"ny":28,"refTime":"2024-05-18T09:00:00:Z","depth":0,"parameterNumber":2,"parameterNumberName":"U-component_of_WINDS"},"data":[0,0,0,0,0,0,0,0,0,0,0,0,0,0,0,0,0,0,0,0,0,0,0,0,0,0,0,0,0,0,0,0,0,0,0,0,0,0,0,0,0,0,0,0,0,0,0,0,0,0,0,0,0,0,0,0,0,0,2.56,2.5602,0,2.5757,2.5759,2.5761,2.5796,2.5795,2.5794,2.5793,2.5955,2.596,2.5966,0,0,0,0,0,0,0,0,0,0,0,0,0,2.5329,2.5334,2.56,2.5602,2.5604,2.5757,2.5759,2.5761,2.5796,2.5795,2.5794,2.5792,2.5953,2.596,2.5966,0,0,0,0,0,0,0,0,0,0,0,0,0,2.5463,2.5335,2.56,2.564,2.5645,2.5757,2.5759,2.5762,2.5797,2.5795,2.5793,2.5792,2.5951,2.5959,2.5967,2.605,0,0,2.5992,2.5995,0,0,0,0,0,0,0,0,2.5455,2.5472,2.5632,2.5637,2.5643,2.5755,2.5723,2.5859,2.5797,2.5739,2.5793,2.5791,2.589,2.5903,2.5936,2.6058,2.6065,2.5992,2.5997,2.6001,2.6003,0,0,0,0,0,0,0,2.5446,2.5466,2.5662,2.5634,2.5641,2.565,2.5667,2.5749,2.5822,2.5744,2.5747,2.5765,2.5893,2.5929,2.594,2.6067,2.5992,2.5999,2.6004,2.6007,2.6261,2.6263,0,0,0,0,0,0,2.5429,2.5458,2.5657,2.5667,2.5543,2.5656,2.5675,2.5721,2.5821,2.5835,2.5766,2.5766,2.5916,2.5931,2.5946,2.6048,2.6001,2.6008,2.6013,2.6259,2.6262,2.6264,0,0,0,0,0,0,2.5423,2.5447,2.5651,2.5563,2.559,2.5662,2.5714,2.5725,2.5761,2.5838,2.5851,2.5789,2.5915,2.5935,2.6023,2.6054,2.6012,2.6019,2.6257,2.626,2.6263,2.6253,0,0,0,0,0,0,2.5415,2.5444,2.5477,2.5564,2.5594,2.5726,2.5716,2.5729,2.5774,2.5776,2.5863,2.5876,2.5915,2.6011,2.6031,2.6064,2.6025,2.6255,2.6258,2.6262,2.6251,2.6255,2.6259,0,0,0,0,0,2.5406,2.5469,2.5479,2.5503,2.5637,2.5727,2.5745,2.5788,2.5777,2.581,2.5859,2.5873,2.6047,2.602,2.6043,2.6079,2.6253,2.6257,2.6262,2.6249,2.6254,2.6259,0,0,0,0,0,0,2.5386,2.5482,2.5493,2.5587,2.5648,2.5733,2.5776,2.5793,2.586,2.5858,2.5909,2.5929,2.6013,2.6055,2.6023,2.6163,2.615,2.6159,2.6132,2.6138,2.6142,2.6129,2.6032,0,0,0,0,0,2.5392,2.5458,2.5538,2.5612,2.5643,2.5704,2.5745,2.5773,2.5839,2.5865,2.5921,2.5985,2.6054,2.6099,2.6167,2.6257,2.6275,2.6293,2.6297,2.63,2.6307,2.6355,2.6363,2.6278,2.6278,2.6278,0,0,2.5407,2.5467,2.5505,2.561,2.5661,2.5727,2.5726,2.5797,2.5845,2.5877,2.5962,2.6005,2.608,2.6169,2.6211,2.6206,2.6334,2.6305,2.6307,2.6313,2.636,2.6368,2.6375,2.6281,2.628,2.628,0,0,2.5465,2.5518,2.5585,2.5635,2.5712,2.5752,2.5768,2.585,2.5879,2.5966,2.5989,2.6048,2.6167,2.6218,2.6259,2.6333,2.6348,2.6354,2.6375,2.6421,2.6428,2.6434,2.6458,2.6467,2.6361,2.6361,2.6361,0,2.5473,2.5573,2.5617,2.5686,2.573,2.576,2.5826,2.5874,2.5969,2.5998,2.5992,2.6138,2.6191,2.6291,2.6308,2.6342,2.636,2.6344,2.6423,2.643,2.6436,2.646,2.6469,2.6361,2.6361,2.6361,2.6361,0,2.5578,2.5647,2.5691,2.578,2.583,2.5897,2.595,2.5995,2.6018,2.6058,2.6144,2.6208,2.6287,2.6313,2.6337,2.6416,2.641,2.6413,2.6401,2.6443,2.6466,2.6476,2.6361,2.6361,2.6361,2.6361,0,0,2.563,2.5741,2.5756,2.5795,2.5881,2.5935,2.6002,2.6079,2.6115,2.618,2.6236,2.6334,2.6336,2.6383,2.6412,2.6453,2.6504,2.645,2.6453,2.6456,2.6592,2.6588,2.6598,2.6515,2.6517,2.6518,2.6585,0,2.5698,2.5819,2.5859,2.596,2.6022,2.605,2.6108,2.6167,2.6205,2.6264,2.6307,2.6374,2.6373,2.6401,2.6442,2.6489,2.6532,2.6485,2.6567,2.657,2.6546,2.6611,2.6608,2.6668,2.6595,2.6596,2.6597,0,2.5794,2.5857,2.5963,2.6037,2.6065,2.6117,2.6189,2.6245,2.6311,2.6336,2.6386,2.6412,2.6482,2.6466,2.6563,2.653,2.6565,2.6593,2.6597,2.6605,2.6585,2.6619,2.6689,2.6697,2.6613,2.6611,2.661,0,2.5818,2.593,2.6007,2.6041,2.613,2.6165,2.6204,2.6268,2.6311,2.6374,2.6401,2.6472,2.6511,2.6564,2.6608,2.6592,2.6699,2.6687,2.6721,2.672,2.6742,2.674,2.6816,2.6767,2.6767,2.6767,2.6767,0,2.5889,2.5952,2.6019,2.6066,2.6137,2.6182,2.6251,2.6291,2.6348,2.6402,2.6431,2.6482,2.6537,2.6595,2.6629,2.6702,2.672,2.6742,2.675,2.6738,2.6735,2.6762,2.6758,2.677,2.6769,2.6769,2.6768,0,2.5928,2.5976,2.6061,2.6138,2.6158,2.6207,2.6272,2.6319,2.6357,2.6426,2.6445,2.6506,2.6575,2.6624,2.6714,2.6736,2.6815,2.6824,2.6792,2.6796,2.6826,2.6822,2.6921,2.6935,2.6878,2.6879,2.6879,0,2.5969,2.6018,2.6099,2.6137,2.6176,2.6238,2.628,2.6326,2.6369,2.6445,2.6482,2.6553,2.6612,2.6721,2.6773,2.6841,2.6851,2.688,2.6861,2.6847,2.6849,2.6844,2.6848,2.6883,2.6883,2.6884,2.6884,0,2.6037,2.6057,2.6117,2.6185,2.6235,2.6291,2.6347,2.6377,2.6431,2.6478,2.6549,2.6594,2.6684,2.6753,2.6825,2.6865,2.6883,2.689,2.6901,2.6889,2.6868,2.6877,2.6798,2.6887,2.6887,2.6887,2.6886,2.6886,2.6077,2.612,2.6183,2.6249,2.6295,2.6346,2.6392,2.6436,2.6495,2.6571,2.6594,2.6666,2.6728,2.6827,2.6867,2.6924,2.6922,2.6939,2.6943,2.6946,2.6944,2.6859,2.6938,2.6938,2.6938,2.6938,2.6938,0,2.6144,2.6185,2.6245,2.6321,2.6372,2.6383,2.6445,2.6487,2.655,2.6606,2.6662,2.6741,2.6808,2.6864,2.6933,2.6967,2.6977,2.6984,2.6981,2.6989,2.6943,2.6926,2.6974,2.6974,2.6974,2.6974,2.6974,2.6974,2.6185,2.6258,2.6285,2.6381,2.6422,2.6492,2.6526,2.6572,2.6617,2.6703,2.6758,2.6794,2.685,2.6922,2.6983,2.6998,2.7021,2.7025,2.7042,2.6997,2.6993,2.6989,2.6973,2.7031,2.7031,2.7083,2.7084,2.7084]},{"header":{"parameterUnit":"m.s-1","parameterCategory":1,"la1":30.2991,"la2":30.254,"lo1":-89.0895,"lo2":-89.0444,"dy":0.0017,"dx":0.0017,"nx":28,"ny":28,"refTime":"2024-05-18T09:00:00:Z","depth":0,"parameterNumber":3,"parameterNumberName":"V-component_of_WINDS"},"data":[0,0,0,0,0,0,0,0,0,0,0,0,0,0,0,0,0,0,0,0,0,0,0,0,0,0,0,0,0,0,0,0,0,0,0,0,0,0,0,0,0,0,0,0,0,0,0,0,0,0,0,0,0,0,0,0,0,0,2.909,2.909,0,2.9116,2.9117,2.9117,2.907,2.9068,2.9067,2.9065,2.909,2.9092,2.9095,0,0,0,0,0,0,0,0,0,0,0,0,0,2.8994,2.8996,2.909,2.909,2.909,2.9116,2.9117,2.9117,2.907,2.9068,2.9066,2.9065,2.909,2.9092,2.9095,0,0,0,0,0,0,0,0,0,0,0,0,0,2.903,2.8997,2.909,2.907,2.9069,2.9116,2.9117,2.9117,2.9071,2.9068,2.9066,2.9064,2.9089,2.9092,2.9095,2.9162,0,0,2.9105,2.9106,0,0,0,0,0,0,0,0,2.9028,2.9033,2.9073,2.9072,2.907,2.9087,2.9092,2.9132,2.9071,2.907,2.9065,2.9063,2.9091,2.9094,2.9104,2.9163,2.9164,2.9105,2.9107,2.9108,2.9109,0,0,0,0,0,0,0,2.9026,2.9032,2.91,2.9073,2.9072,2.9059,2.9061,2.91,2.9093,2.907,2.9066,2.907,2.909,2.9101,2.9104,2.9165,2.9105,2.9108,2.911,2.9111,2.9278,2.928,0,0,0,0,0,0,2.9026,2.903,2.9099,2.9101,2.9043,2.9062,2.9065,2.9084,2.9093,2.9092,2.9072,2.9068,2.9097,2.9101,2.9105,2.9183,2.9108,2.9111,2.9113,2.9276,2.9279,2.9281,0,0,0,0,0,0,2.9024,2.9033,2.9098,2.9065,2.9072,2.9067,2.9088,2.9086,2.9097,2.9095,2.9093,2.9085,2.9095,2.9101,2.9148,2.9183,2.9113,2.9116,2.9273,2.9276,2.928,2.934,0,0,0,0,0,0,2.9022,2.9032,2.9059,2.9066,2.9074,2.9142,2.9091,2.9088,2.9103,2.9098,2.9106,2.9106,2.9094,2.9143,2.9151,2.9186,2.9118,2.9269,2.9274,2.9279,2.9335,2.9345,2.9354,0,0,0,0,0,2.9018,2.9074,2.906,2.9069,2.9107,2.9144,2.9149,2.9135,2.9106,2.9132,2.913,2.9105,2.9178,2.9149,2.9157,2.9194,2.9267,2.9273,2.9278,2.933,2.9343,2.9354,0,0,0,0,0,0,2.9071,2.9075,2.9059,2.9119,2.9132,2.9136,2.9168,2.9149,2.9169,2.9163,2.9144,2.9146,2.9197,2.92,2.9167,2.9258,2.9218,2.9225,2.9254,2.9266,2.9276,2.9274,2.9121,0,0,0,0,0,2.909,2.912,2.9122,2.9175,2.9182,2.9174,2.919,2.9178,2.9189,2.9194,2.9196,2.9207,2.9232,2.925,2.9273,2.9335,2.9335,2.9364,2.9373,2.9381,2.9388,2.9419,2.9432,2.93,2.93,2.93,0,0,2.9129,2.9134,2.9155,2.9185,2.9193,2.9224,2.9179,2.9214,2.9236,2.9199,2.9244,2.9245,2.9257,2.9312,2.9336,2.9315,2.9424,2.9389,2.9395,2.9397,2.9426,2.9439,2.945,2.9304,2.9303,2.9302,0,0,2.9215,2.9223,2.9267,2.9276,2.9289,2.9283,2.9294,2.9301,2.9301,2.9346,2.9318,2.9344,2.9388,2.9397,2.9407,2.9495,2.9473,2.9503,2.9554,2.9585,2.9595,2.9604,2.9634,2.9646,2.951,2.951,2.951,0,2.9261,2.9308,2.9292,2.9329,2.9342,2.931,2.9354,2.9363,2.9383,2.9392,2.937,2.9424,2.9429,2.9485,2.9506,2.9516,2.9526,2.9502,2.9595,2.9604,2.9612,2.9641,2.9652,2.9514,2.9513,2.9513,2.9513,0,2.9363,2.9396,2.943,2.945,2.9467,2.9507,2.9496,2.9515,2.9501,2.9498,2.9542,2.9548,2.9571,2.9583,2.957,2.9637,2.9623,2.9598,2.9557,2.9629,2.9655,2.9666,2.9519,2.9517,2.9516,2.9516,0,0,2.9484,2.9494,2.9507,2.9515,2.9526,2.955,2.9588,2.9611,2.9627,2.9641,2.9671,2.9709,2.9686,2.9697,2.9685,2.9712,2.9779,2.9683,2.9683,2.97,2.9851,2.987,2.9883,2.9765,2.9767,2.9768,2.985,0,2.9569,2.9635,2.9621,2.9685,2.9714,2.9683,2.9716,2.9726,2.9723,2.9746,2.9742,2.9769,2.9737,2.9743,2.9769,2.9766,2.9809,2.976,2.9791,2.9793,2.9789,2.9897,2.9916,2.9993,2.986,2.9862,2.9863,0,2.9677,2.9695,2.9762,2.9767,2.9779,2.9809,2.9828,2.9851,2.986,2.9856,2.9869,2.9851,2.9887,2.9846,2.9894,2.9861,2.9873,2.9873,2.9876,2.9877,2.9832,2.99,3.0017,3.0029,2.988,2.9878,2.9877,0,2.9756,2.9798,2.9843,2.9851,2.9859,2.988,2.9884,2.9891,2.9906,2.9922,2.9931,2.9951,2.9962,2.9978,2.9965,2.9936,3.0015,2.9973,3.0011,3.0012,3.0029,3.0028,3.0148,3.0038,3.0038,3.0038,3.0037,0,2.9852,2.9894,2.9879,2.9906,2.9952,2.9935,2.998,2.998,2.9987,3.0013,2.9988,3.0013,2.9995,3.0018,3.0008,3.0049,3.0054,3.0051,3.0048,3.0053,3.0053,3.006,3.0054,3.0041,3.004,3.0039,3.0039,0,2.9949,2.994,2.9987,2.999,2.9992,3.0025,3.0027,3.0052,3.0047,3.0081,3.0088,3.008,3.0105,3.0094,3.0121,3.0114,3.0167,3.0157,3.0164,3.0161,3.0199,3.0195,3.0328,3.0344,3.0224,3.0225,3.0226,0,3.001,3.0041,3.0048,3.0064,3.0069,3.0096,3.011,3.0094,3.011,3.0123,3.0146,3.0169,3.0187,3.0229,3.0225,3.0246,3.0235,3.028,3.0238,3.0242,3.0235,3.0233,3.0235,3.0289,3.029,3.0291,3.0292,0,3.0119,3.0113,3.0135,3.0155,3.0173,3.0188,3.0201,3.0215,3.0199,3.0218,3.0244,3.0258,3.0285,3.0309,3.0326,3.0329,3.0308,3.0306,3.0315,3.032,3.0323,3.0321,3.0186,3.0302,3.0301,3.0301,3.03,3.03,3.0199,3.0225,3.0233,3.0258,3.0266,3.0278,3.0301,3.0299,3.0321,3.0342,3.0331,3.0361,3.0369,3.039,3.0396,3.0418,3.04,3.0415,3.0418,3.0422,3.0426,3.032,3.0421,3.0421,3.0421,3.042,3.042,0,3.0305,3.0309,3.0332,3.035,3.0369,3.0348,3.0361,3.0378,3.0405,3.0414,3.0432,3.0461,3.0484,3.0481,3.0501,3.052,3.051,3.0525,3.0523,3.0524,3.0442,3.0431,3.0533,3.0532,3.0532,3.0532,3.0532,3.0532,3.0363,3.0405,3.04,3.0445,3.0448,3.0478,3.0487,3.0497,3.0504,3.0538,3.0557,3.0555,3.0559,3.0579,3.0598,3.0597,3.0605,3.0623,3.0618,3.0541,3.053,3.0519,3.0509,3.0626,3.0626,3.0699,3.0699,3.07]}]]